This is the latest recevied weather packets stored in our database for station/object KD8JAM. If no packets are shown the sender has not sent any weather packets the latest 10 day(s).
| Time | Temp. | Humidity | Pressure | Rain* | Wind** | Luminosity | Snow |
|---|---|---|---|---|---|---|---|
| 1777682602 | 0.56° C | 79% | 1019.3 hPa | 0 mm | - | 11 W/m² | - |
| 1777682301 | 0.56° C | 79% | 1019.5 hPa | 0 mm | - | 15 W/m² | - |
| 1777681997 | 1.11° C | 78% | 1019.5 hPa | 0 mm | - | 16 W/m² | - |
| 1777681694 | 1.11° C | 78% | 1019.5 hPa | 0 mm | - | 18 W/m² | - |
| 1777681391 | 1.11° C | 76% | 1019.5 hPa | 0 mm | - | 21 W/m² | - |
| 1777681088 | 1.67° C | 76% | 1019.4 hPa | 0 mm | - | 23 W/m² | - |
| 1777680786 | 1.67° C | 74% | 1019.5 hPa | 0 mm | - | 26 W/m² | - |
| 1777680483 | 1.67° C | 74% | 1019.6 hPa | 0 mm | - | 29 W/m² | - |
| 1777680181 | 1.67° C | 73% | 1019.6 hPa | 0 mm | - | 31 W/m² | - |
| 1777679876 | 2.22° C | 72% | 1019.5 hPa | 0 mm | - | 44 W/m² | - |
| 1777679572 | 2.22° C | 72% | 1019.3 hPa | 0 mm | - | 42 W/m² | - |
| 1777679268 | 2.22° C | 70% | 1019.5 hPa | 0 mm | - | 64 W/m² | - |
| 1777678965 | 2.22° C | 70% | 1019.4 hPa | 0 mm | - | 47 W/m² | - |
| 1777678663 | 2.22° C | 71% | 1019.3 hPa | 0 mm | - | 55 W/m² | - |
| 1777678361 | 2.22° C | 71% | 1019.3 hPa | 0 mm | - | 46 W/m² | - |
| 1777678056 | 2.78° C | 70% | 1019.3 hPa | 0 mm | - | 56 W/m² | - |
| 1777677753 | 2.78° C | 69% | 1019.5 hPa | 0 mm | - | 76 W/m² | - |
| 1777677451 | 2.78° C | 67% | 1019.5 hPa | 0 mm | - | 75 W/m² | - |
| 1777677149 | 2.78° C | 67% | 1019.5 hPa | 0 mm | - | 153 W/m² | - |
| 1777676847 | 3.33° C | 65% | 1019.6 hPa | 0 mm | - | 190 W/m² | - |
| 1777676546 | 3.33° C | 66% | 1019.5 hPa | 0 mm | - | 203 W/m² | - |
| 1777676243 | 3.33° C | 65% | 1019.8 hPa | 0 mm | - | 177 W/m² | - |
| 1777675940 | 2.78° C | 65% | 1019.6 hPa | 0 mm | - | 57 W/m² | - |
| 1777675636 | 3.33° C | 67% | 1019.4 hPa | 0 mm | - | 66 W/m² | - |
| 1777675334 | 3.33° C | 65% | 1019.4 hPa | 0 mm | - | 90 W/m² | - |
* Rain latest hour (hover to see other rain measurements)
** Current wind speed in m/s (hover to see current wind gust speed)